Regional Weather Roundup
Issued by NWS Sioux Falls, SD

Home | Current Version | Previous Version | Text Only | Print | Product List | Glossary On
Versions: 1 2 3 4 5 6 7 8 9 10 11 12 13 14 15 16 17 18 19 20 21 22 23 24 25 26 27 28 29 30 31 32 33 34 35 36 37 38 39 40 41 42 43 44 45 46 47 48 49 50
000
ASUS43 KFSD 010902
RWRFSD

WEATHER ROUNDUP FOR SE SOUTH DAKOTA/SW MINNESOTA/NW IOWA
NATIONAL WEATHER SERVICE SIOUX FALLS SD
400 AM CDT SAT NOV 01 2014

NOTE: "FAIR" INDICATES FEW OR NO CLOUDS BELOW 12,000 FEET WITH NO
SIGNIFICANT WEATHER AND OR OBSTRUCTIONS TO VISIBILITY.


SDZ038>040-050-052>070-011000-
SOUTHEAST SOUTH DAKOTA

CITY           SKY/WX    TMP DP  RH WIND       PRES   REMARKS
CHAMBERLAIN    CLEAR     32  15  49 SE16      30.16F WCI  21
HURON          PTCLDY    32  18  56 S17G26    30.24F WCI  21
MADISON        FAIR      27  18  69 S16       30.31F WCI  14
MITCHELL       PTCLDY    31  19  61 S18       30.29F WCI  19
SIOUX FALLS    PTCLDY    28  17  63 S16       30.35F WCI  16
WINNER         FAIR      36  13  38 S25G36    30.12F
YANKTON        CLEAR     28  18  64 SE10      30.35F WCI  19
$$

MNZ071-072-080-081-089-090-097-098-011000-
SOUTHWEST MINNESOTA

CITY           SKY/WX    TMP DP  RH WIND       PRES   REMARKS
FAIRMONT       PTCLDY    19  10  68 S8        30.43S WCI   9
JACKSON        PTCLDY    23  16  74 S8        30.41F WCI  14
LUVERNE        PTCLDY    28  19  69 S8        30.39S WCI  20
MARSHALL       PTCLDY    25  16  68 S10       30.37S WCI  15
MONTEVIDEO     PTCLDY    27  18  69 S8        30.39F WCI  18
PIPESTONE      PTCLDY    25  18  74 S13       30.34F WCI  13
REDWOOD FALLS  PTCLDY    20  13  74 S9        30.41F WCI   9
TRACY          PTCLDY    26  18  71 S12G18    30.38F WCI  16
WINDOM         PTCLDY    23  16  74 SE8       30.40F WCI  14
WORTHINGTON    PTCLDY    25  16  68 S9        30.39F WCI  15
$$

IAZ001>003-012>014-020>022-031-032-NEZ013-014-SDZ071-011000-
NORTHWEST IOWA

CITY           SKY/WX    TMP DP  RH WIND       PRES   REMARKS
CHEROKEE       PTCLDY    22  18  87 SE7       30.43S WCI  13
DENISON        PTCLDY    25  19  80 SE6       30.42F WCI  18
ESTHERVILLE    PTCLDY    16  11  80 S8        30.43F WCI   5
LE MARS        CLEAR     27  19  74 SE7       30.41F WCI  19
ORANGE CITY    PTCLDY    27  18  69 SE5       30.39F WCI  21
SHELDON        PTCLDY    25  18  74 SE10      30.39F WCI  15
SIOUX CITY     PTCLDY    26  19  74 SE8       30.42F WCI  18
SPENCER        PTCLDY    20  14  77 SE9       30.42F WCI   9
STORM LAKE     PTCLDY    23  16  74 SE8       30.43F WCI  14
$$

ABBREVIATIONS USED IN REMARKS
   TC - TEMPERATURE IN CELSIUS
  WCI - WIND CHILL INDEX
   HX - HEAT INDEX
  VSB - VISIBILITY




USA.gov is the U.S. government's official web portal to all federal, state and local government web resources and services.